Location: Newark
(33.6333°S, 78.8500°W)
Time: 01:03:46
(UTC+00:00)

Tiros 1 - Pass Details

Date: 27 October 2019
Orbit: 630 x 664 km, 48.4° (Epoch: 17 November)

Event Time Altitude Azimuth Distance (km) Brightness Sun altitude
Rises 18:22:11 0° 243° (WSW) 2,961 10.7 61.9°
Reaches altitude 10° 18:25:44 10° 216° (SW) 2,045 9.8 61.4°
Maximum altitude 18:28:04 14° 186° (S) 1,817 9.5 61.0°
Drops below altitude 10° 18:30:24 10° 156° (SSE) 2,039 9.6 60.7°
Sets 18:33:55 0° 129° (SE) 2,943 10.2 60.1°
